Terminal Aerodrome Forecast
Issued by NWS

Current Version | Previous Version | Graphics & Text | Print | Product List | Glossary On
Versions: 1 2 3 4 5 6 7 8 9 10 11 12 13 14 15 16 17
000
FTUS41 KPBZ 231700
TAFMGW
TAF
KMGW 231720Z 2318/2418 21010KT P6SM FEW027
     FM232100 29010KT P6SM -SHRA BKN035
     FM240300 33010KT P6SM BKN025
     FM241600 02008KT P6SM SCT035=

USA.gov is the U.S. government's official web portal to all federal, state and local government web resources and services.